When you browse on this site, cookies collect data to enhance your experience and personalize the content and advertising you see.
Visit our Privacy Policy to learn more. By continuing to use the site, you agree to this use of cookies and data.
  • En España
  • Lista de países
  • Para 7 días
  • Temperatura del agua
  • El tiempo en el mapa
  • Informadores
  • user-avatar
    Iniciar sesión

    Tiempo cada hora Ondjiwa

    Hoy, 22 Agosto, Jueves

    Tiempo Temperatura Precipitaciones Viento Presión Humedad
    00:00 +17°C° 0 mm 3 mps 669 mmHg 25%
    01:00 +16°C° 0 mm 3 mps 669 mmHg 26%
    02:00 +16°C° 0 mm 3 mps 669 mmHg 28%
    03:00 +14°C° 0 mm 3 mps 669 mmHg 30%
    04:00 +13°C° 0 mm 3 mps 669 mmHg 31%
    05:00 +13°C° 0 mm 3 mps 669 mmHg 32%
    06:00 +14°C° 0 mm 3 mps 670 mmHg 33%
    07:00 +14°C° 0 mm 3 mps 670 mmHg 33%
    08:00 +19°C° 0 mm 4 mps 671 mmHg 28%
    09:00 +23°C° 0 mm 6 mps 672 mmHg 23%
    10:00 +28°C° 0 mm 7 mps 673 mmHg 18%
    11:00 +29°C° 0 mm 6 mps 672 mmHg 17%
    12:00 +30°C° 0 mm 6 mps 672 mmHg 16%
    13:00 +33°C° 0 mm 5 mps 671 mmHg 14%
    14:00 +33°C° 0 mm 5 mps 671 mmHg 14%
    15:00 +33°C° 0 mm 4 mps 670 mmHg 14%
    16:00 +33°C° 0 mm 4 mps 670 mmHg 14%
    17:00 +29°C° 0 mm 4 mps 670 mmHg 18%
    18:00 +26°C° 0 mm 3 mps 669 mmHg 21%
    19:00 +22°C° 0 mm 3 mps 669 mmHg 25%
    20:00 +21°C° 0 mm 3 mps 669 mmHg 26%
    21:00 +20°C° 0 mm 3 mps 670 mmHg 28%
    22:00 +19°C° 0 mm 3 mps 670 mmHg 30%
    23:00 +19°C° 0 mm 4 mps 670 mmHg 30%

    Mañana, 23 Agosto, Viernes

    Tiempo Temperatura Precipitaciones Viento Presión Humedad
    00:00 +19°C° 0 mm 4 mps 670 mmHg 31%
    01:00 +19°C° 0 mm 4 mps 670 mmHg 32%
    02:00 +18°C° 0 mm 4 mps 670 mmHg 33%
    03:00 +17°C° 0 mm 4 mps 670 mmHg 35%
    04:00 +15°C° 0 mm 4 mps 669 mmHg 37%
    05:00 +15°C° 0 mm 4 mps 670 mmHg 36%
    06:00 +15°C° 0 mm 4 mps 671 mmHg 35%
    07:00 +15°C° 0 mm 4 mps 672 mmHg 34%
    08:00 +20°C° 0 mm 5 mps 672 mmHg 28%
    09:00 +23°C° 0 mm 6 mps 673 mmHg 22%
    10:00 +28°C° 0 mm 7 mps 673 mmHg 16%
    11:00 +29°C° 0 mm 6 mps 673 mmHg 14%
    12:00 +32°C° 0 mm 6 mps 672 mmHg 12%
    13:00 +33°C° 0 mm 5 mps 672 mmHg 9%
    14:00 +33°C° 0 mm 5 mps 671 mmHg 9%
    15:00 +33°C° 0 mm 5 mps 671 mmHg 9%
    16:00 +33°C° 0 mm 5 mps 670 mmHg 9%
    17:00 +29°C° 0 mm 4 mps 670 mmHg 11%
    18:00 +26°C° 0 mm 3 mps 670 mmHg 12%
    19:00 +21°C° 0 mm 3 mps 669 mmHg 14%
    20:00 +20°C° 0 mm 3 mps 669 mmHg 15%
    21:00 +19°C° 0 mm 2 mps 670 mmHg 16%
    22:00 +18°C° 0 mm 2 mps 670 mmHg 17%
    23:00 +17°C° 0 mm 3 mps 670 mmHg 18%

    Pasado mañana, 24 Agosto, Sábado

    Tiempo Temperatura Precipitaciones Viento Presión Humedad
    00:00 +16°C° 0 mm 3 mps 670 mmHg 20%
    01:00 +14°C° 0 mm 3 mps 669 mmHg 21%
    02:00 +14°C° 0 mm 3 mps 669 mmHg 22%
    03:00 +13°C° 0 mm 3 mps 669 mmHg 23%
    04:00 +12°C° 0 mm 3 mps 669 mmHg 24%
    05:00 +12°C° 0 mm 3 mps 670 mmHg 24%
    06:00 +12°C° 0 mm 3 mps 670 mmHg 24%
    07:00 +12°C° 0 mm 3 mps 671 mmHg 23%
    08:00 +18°C° 0 mm 4 mps 672 mmHg 19%
    09:00 +23°C° 0 mm 5 mps 672 mmHg 14%
    10:00 +28°C° 0 mm 6 mps 673 mmHg 9%
    11:00 +30°C° 0 mm 6 mps 673 mmHg 8%
    12:00 +32°C° 0 mm 5 mps 672 mmHg 7%
    13:00 +34°C° 0 mm 5 mps 671 mmHg 6%
    14:00 +34°C° 0 mm 4 mps 671 mmHg 6%
    15:00 +34°C° 0 mm 4 mps 670 mmHg 6%
    16:00 +34°C° 0 mm 4 mps 670 mmHg 6%
    17:00 +29°C° 0 mm 3 mps 669 mmHg 7%
    18:00 +26°C° 0 mm 3 mps 669 mmHg 8%
    19:00 +23°C° 0 mm 2 mps 669 mmHg 9%
    20:00 +20°C° 0 mm 2 mps 669 mmHg 10%
    21:00 +19°C° 0 mm 2 mps 669 mmHg 11%
    22:00 +18°C° 0 mm 2 mps 669 mmHg 12%
    23:00 +17°C° 0 mm 2 mps 669 mmHg 13%

    25 Agosto, Domingo

    Tiempo Temperatura Precipitaciones Viento Presión Humedad
    00:00 +16°C° 0 mm 3 mps 669 mmHg 15%
    01:00 +16°C° 0 mm 3 mps 669 mmHg 16%
    02:00 +14°C° 0 mm 3 mps 668 mmHg 18%
    03:00 +13°C° 0 mm 3 mps 668 mmHg 20%
    04:00 +12°C° 0 mm 3 mps 668 mmHg 22%
    05:00 +12°C° 0 mm 3 mps 669 mmHg 22%
    06:00 +12°C° 0 mm 3 mps 669 mmHg 22%
    07:00 +12°C° 0 mm 3 mps 670 mmHg 22%
    08:00 +18°C° 0 mm 4 mps 671 mmHg 17%
    09:00 +23°C° 0 mm 5 mps 671 mmHg 13%
    10:00 +28°C° 0 mm 6 mps 672 mmHg 9%
    11:00 +30°C° 0 mm 5 mps 671 mmHg 8%
    12:00 +32°C° 0 mm 5 mps 671 mmHg 7%
    13:00 +34°C° 0 mm 4 mps 670 mmHg 6%
    14:00 +34°C° 0 mm 4 mps 670 mmHg 6%
    15:00 +34°C° 0 mm 4 mps 669 mmHg 5%
    16:00 +34°C° 0 mm 3 mps 669 mmHg 5%
    17:00 +30°C° 0 mm 3 mps 668 mmHg 7%
    18:00 +27°C° 0 mm 2 mps 668 mmHg 8%
    19:00 +23°C° 0 mm 2 mps 668 mmHg 10%
    20:00 +21°C° 0 mm 2 mps 668 mmHg 11%
    21:00 +19°C° 0 mm 2 mps 668 mmHg 12%
    22:00 +18°C° 0 mm 2 mps 668 mmHg 13%
    23:00 +18°C° 0 mm 2 mps 668 mmHg 14%

    26 Agosto, Lunes

    Tiempo Temperatura Precipitaciones Viento Presión Humedad
    00:00 +17°C° 0 mm 3 mps 668 mmHg 15%
    01:00 +17°C° 0 mm 3 mps 668 mmHg 15%
    02:00 +16°C° 0 mm 2 mps 668 mmHg 16%
    03:00 +15°C° 0 mm 2 mps 668 mmHg 17%
    04:00 +14°C° 0 mm 2 mps 667 mmHg 17%
    05:00 +14°C° 0 mm 2 mps 668 mmHg 18%
    06:00 +14°C° 0 mm 1 mps 669 mmHg 19%
    07:00 +14°C° 0 mm 1 mps 669 mmHg 19%
    08:00 +19°C° 0 mm 1 mps 670 mmHg 16%
    09:00 +23°C° 0 mm 2 mps 671 mmHg 12%
    10:00 +28°C° 0 mm 2 mps 671 mmHg 9%
    11:00 +30°C° 0 mm 2 mps 671 mmHg 7%
    12:00 +32°C° 0 mm 2 mps 671 mmHg 6%
    13:00 +35°C° 0 mm 2 mps 670 mmHg 5%
    14:00 +35°C° 0 mm 2 mps 670 mmHg 5%
    15:00 +35°C° 0 mm 2 mps 669 mmHg 4%
    16:00 +34°C° 0 mm 1 mps 669 mmHg 4%
    17:00 +30°C° 0 mm 2 mps 668 mmHg 6%
    18:00 +27°C° 0 mm 2 mps 668 mmHg 7%
    19:00 +23°C° 0 mm 2 mps 667 mmHg 8%
    20:00 +21°C° 0 mm 2 mps 667 mmHg 9%
    21:00 +20°C° 0 mm 2 mps 668 mmHg 10%
    22:00 +19°C° 0 mm 2 mps 668 mmHg 11%
    23:00 +18°C° 0 mm 2 mps 668 mmHg 11%

    27 Agosto, Martes

    Tiempo Temperatura Precipitaciones Viento Presión Humedad
    00:00 +18°C° 0 mm 2 mps 668 mmHg 11%
    01:00 +17°C° 0 mm 3 mps 668 mmHg 11%
    02:00 +16°C° 0 mm 2 mps 668 mmHg 12%
    03:00 +15°C° 0 mm 1 mps 667 mmHg 13%
    04:00 +13°C° 0 mm 1 mps 667 mmHg 15%
    05:00 +14°C° 0 mm 1 mps 668 mmHg 15%
    06:00 +13°C° 0 mm 0 mps 668 mmHg 15%
    07:00 +14°C° 0 mm 0 mps 669 mmHg 15%
    08:00 +20°C° 0 mm 1 mps 670 mmHg 12%
    09:00 +25°C° 0 mm 1 mps 671 mmHg 9%
    10:00 +29°C° 0 mm 1 mps 672 mmHg 6%
    11:00 +32°C° 0 mm 1 mps 671 mmHg 5%
    12:00 +34°C° 0 mm 1 mps 671 mmHg 5%
    13:00 +36°C° 0 mm 1 mps 670 mmHg 4%
    14:00 +36°C° 0 mm 1 mps 670 mmHg 4%
    15:00 +36°C° 0 mm 2 mps 669 mmHg 4%
    16:00 +35°C° 0 mm 2 mps 668 mmHg 4%
    17:00 +31°C° 0 mm 2 mps 668 mmHg 6%
    18:00 +28°C° 0 mm 3 mps 667 mmHg 7%
    19:00 +24°C° 0 mm 3 mps 667 mmHg 9%
    20:00 +22°C° 0 mm 3 mps 667 mmHg 9%
    21:00 +23°C° 0 mm 2 mps 668 mmHg 9%
    22:00 +21°C° 0 mm 2 mps 668 mmHg 9%
    23:00 +20°C° 0 mm 3 mps 668 mmHg 12%
    Mostrar más